0015 EDKL-EDKL

Flight info

Callsign 0015
Flight time 0h 17m
Altitude 8000
Route EDKA
Aircraft C208/L-SDFGR/C

Departure

Time 2026-05-06 16:54
Airport Leverkusen Airfield (EDKL)

Arrival

Time 2026-05-06 17:11
Airport Leverkusen Airfield (EDKL)
Time Latitude Longitude Altitude Speed Heading
2026-05-06 16:31 51.01480 7.00783 170 ft 0 kts 66°
2026-05-06 16:41 51.01480 7.00784 170 ft 0 kts 65°
2026-05-06 16:44 51.01491 7.00791 169 ft 6 kts 345°
2026-05-06 16:44 51.01502 7.00757 169 ft 3 kts 287°
2026-05-06 16:44 51.01511 7.00712 169 ft 4 kts 292°
2026-05-06 16:45 51.01630 7.00571 169 ft 23 kts 328°
2026-05-06 16:45 51.01719 7.00486 167 ft 21 kts 328°
2026-05-06 16:45 51.01811 7.00393 169 ft 34 kts 326°
2026-05-06 16:45 51.01916 7.00250 165 ft 13 kts 265°
2026-05-06 16:46 51.01875 7.00197 164 ft 5 kts 122°
2026-05-06 16:46 51.01881 7.00255 167 ft 0 kts 69°
2026-05-06 16:52 51.01881 7.00256 167 ft 3 kts 68°
2026-05-06 16:52 51.01891 7.00308 167 ft 2 kts 117°
2026-05-06 16:52 51.01886 7.00315 167 ft 0 kts 151°
2026-05-06 16:52 51.01616 7.00549 176 ft 87 kts 149°
2026-05-06 16:53 51.01079 7.01075 399 ft 96 kts 143°
2026-05-06 16:53 51.00584 7.01832 602 ft 98 kts 130°
2026-05-06 16:53 50.99957 7.02204 691 ft 111 kts 218°
2026-05-06 16:53 50.99433 7.01158 725 ft 130 kts 250°
2026-05-06 16:54 50.99253 6.99743 793 ft 134 kts 275°
2026-05-06 16:54 50.99505 6.98316 794 ft 138 kts 300°
2026-05-06 16:54 51.00109 6.97367 1100 ft 102 kts 341°
2026-05-06 16:54 51.00568 6.96632 1543 ft 107 kts 284°
2026-05-06 16:55 51.00688 6.95403 1898 ft 126 kts 287°
2026-05-06 16:55 51.00902 6.93914 1877 ft 146 kts 287°
2026-05-06 16:55 51.01118 6.92288 1863 ft 150 kts 287°
2026-05-06 16:55 51.01327 6.90649 1865 ft 154 kts 286°
2026-05-06 16:56 51.01542 6.88991 1858 ft 152 kts 286°
2026-05-06 16:56 51.01762 6.87363 1862 ft 150 kts 287°
2026-05-06 16:56 51.01980 6.85736 1857 ft 151 kts 286°
2026-05-06 16:56 51.02308 6.84189 1847 ft 145 kts 311°
2026-05-06 16:57 51.03162 6.83534 1853 ft 140 kts
2026-05-06 16:57 51.03985 6.84258 1863 ft 143 kts 52°
2026-05-06 16:57 51.04441 6.85671 1875 ft 143 kts 61°
2026-05-06 16:57 51.04878 6.87096 1879 ft 145 kts 61°
2026-05-06 16:58 51.05145 6.88636 1869 ft 148 kts 86°
2026-05-06 16:58 51.05129 6.90270 1860 ft 147 kts 87°
2026-05-06 16:58 51.05118 6.91899 1862 ft 147 kts 87°
2026-05-06 16:58 51.05102 6.93524 1864 ft 147 kts 88°
2026-05-06 16:59 51.05109 6.95170 1856 ft 150 kts 87°
2026-05-06 16:59 51.05352 6.96695 1838 ft 144 kts 51°
2026-05-06 16:59 51.06192 6.97376 1845 ft 139 kts
2026-05-06 16:59 51.07044 6.96727 1847 ft 144 kts 313°
2026-05-06 17:00 51.07308 6.95183 1853 ft 147 kts 271°
2026-05-06 17:00 51.07267 6.93559 1866 ft 146 kts 272°
2026-05-06 17:00 51.07226 6.91954 1877 ft 149 kts 271°
2026-05-06 17:00 51.07158 6.90298 1879 ft 153 kts 261°
2026-05-06 17:01 51.06543 6.88903 1866 ft 162 kts 214°
2026-05-06 17:01 51.05468 6.88399 1872 ft 162 kts 189°
2026-05-06 17:01 51.04361 6.88077 1863 ft 161 kts 191°
2026-05-06 17:01 51.03260 6.87761 1867 ft 161 kts 190°
2026-05-06 17:02 51.02161 6.87434 1865 ft 160 kts 191°
2026-05-06 17:02 51.01092 6.87115 1863 ft 152 kts 190°
2026-05-06 17:02 51.00065 6.86805 1860 ft 149 kts 191°
2026-05-06 17:02 50.99074 6.86498 1838 ft 145 kts 191°
2026-05-06 17:03 50.98098 6.86206 1854 ft 142 kts 186°
2026-05-06 17:03 50.97182 6.86646 1847 ft 143 kts 134°
2026-05-06 17:03 50.96813 6.88111 1858 ft 152 kts 86°
2026-05-06 17:03 50.96922 6.89826 1873 ft 157 kts 81°
2026-05-06 17:04 50.97093 6.91516 1867 ft 158 kts 72°
2026-05-06 17:04 50.97388 6.93142 1854 ft 136 kts 71°
2026-05-06 17:04 50.97631 6.94495 1694 ft 129 kts 70°
2026-05-06 17:04 50.97902 6.95921 1531 ft 143 kts 70°
2026-05-06 17:05 50.98189 6.97470 1401 ft 148 kts 70°
2026-05-06 17:05 50.98485 6.99050 1261 ft 151 kts 71°
2026-05-06 17:05 50.98793 7.00645 1068 ft 152 kts 70°
2026-05-06 17:05 50.99109 7.02267 904 ft 155 kts 71°
2026-05-06 17:06 50.99430 7.03923 759 ft 158 kts 70°
2026-05-06 17:06 50.99982 7.05026 808 ft 109 kts 359°
2026-05-06 17:06 51.00436 7.04435 722 ft 94 kts 283°
2026-05-06 17:06 51.00500 7.03360 693 ft 96 kts 276°
2026-05-06 17:07 51.00511 7.02250 477 ft 100 kts 271°
2026-05-06 17:07 51.00605 7.01371 290 ft 66 kts 312°
2026-05-06 17:07 51.01030 7.00925 347 ft 78 kts 341°
2026-05-06 17:07 51.01474 7.00659 192 ft 62 kts 327°
2026-05-06 17:08 51.01892 7.00271 206 ft 73 kts 327°
2026-05-06 17:08 51.02408 6.99926 355 ft 94 kts 351°
2026-05-06 17:08 51.03076 6.99715 370 ft 102 kts 338°
2026-05-06 17:08 51.03764 6.99393 367 ft 103 kts 341°
2026-05-06 17:09 51.04439 6.99074 367 ft 103 kts 342°
2026-05-06 17:09 51.05114 6.98751 365 ft 101 kts 341°
2026-05-06 17:09 51.05717 6.98334 499 ft 86 kts 290°
2026-05-06 17:09 51.05159 6.97988 541 ft 105 kts 154°
2026-05-06 17:10 51.04488 6.98567 463 ft 117 kts 161°
2026-05-06 17:10 51.03689 6.98923 360 ft 118 kts 163°
2026-05-06 17:10 51.02937 6.99372 350 ft 114 kts 163°
2026-05-06 17:10 51.02190 6.99798 309 ft 115 kts 160°
2026-05-06 17:11 51.01613 7.00314 258 ft 78 kts 119°
2026-05-06 17:11 51.01259 7.00815 169 ft 50 kts 152°
2026-05-06 17:11 51.01185 7.00900 167 ft 10 kts 91°
2026-05-06 17:11 51.01226 7.00958 167 ft 0 kts 17°
2026-05-06 17:13 51.01237 7.00959 167 ft 10 kts 351°
2026-05-06 17:13 51.01366 7.00829 168 ft 25 kts 327°
2026-05-06 17:14 51.01484 7.00707 170 ft 11 kts 326°
2026-05-06 17:14 51.01503 7.00727 169 ft 7 kts 62°
2026-05-06 17:14 51.01517 7.00761 169 ft 1 kts 55°